CZ-6A DEB, 60658

Orbit data source: Space-Track

CZ-6A DEB, 60658 is space debris in LEO originally from a launch on Tue, 06 Aug 2024 UTC launched from the Taiyaun Space Center, China (TSC). Debris objects in space refer to the collection of defunct objects orbiting the Earth. Examples of debris include non-operational satellites, rocket bodies, and fragments generated from explosions, collisions, or faulty payload assembly.

Loading next visibility...
Identifier
60658, 2024-140BK
Orbit
LEO
Country
Flag of CNCN / PRC
Related business
Manufacturer
SAST
Mission
Spacecraft
Bus & Motor
Unknown
Mass
Unknown
Launch date (UTC)
2024-08-06 (2 years ago)
Launch vehicle
Unknown
Launch site
Taiyaun Space Center, China (TSC)
Object type
Payload
Rocket body
Debris
Shape & HBR
Unknown shape, 0.1 m
Radar Cross Section
Medium (>0.1 m² and <1 m²)

Expand to show TLE details & history
Last TLE update: 14 hours ago

TLE from 14 hours ago
0 CZ-6A DEB
1 60658U 24140BK  26171.24654744  .00000597  00000-0  19714-3 0  9995
2 60658  88.9846 271.1276 0067445  17.7410 342.6121 14.35561684 97549
Epoch: 2026-06-20T05:55Z
TLE epoch observation values (Epoch: 2026-06-20T05:55:01.698Z)
Latitude
-0.00004°
Longitude
-86.0934°
Altitude
730.267 km
Speed
7.514 km/s
True Right ascension
18h 04m 30s
True Declination
0° 00' 00"
Sunlit
Object was in full shadow at epoch
Visualization orbit readout
Latitude
Unknown
Longitude
Unknown
Altitude
Unknown
Speed
Unknown
Apparent Right ascension
Unknown
Apparent Declination
Unknown
Sunlit
N/A
Visualization observer readout
Local Sidereal Time
07:20:19
Azimuth
Unknown
Elevation
Unknown
Doppler factor
Unknown
Orbital elements
Apogee altitude
818.341 km
Perigee altitude
721.918 km
Semi-major axis
7,148.266 km
Eccentricity
0.00674
Inclination
88.9846°
RAAN
271.1276°
Arg. of periapsis
17.741°
True anomaly
342.37927°
Mean anomaly
342.6121°
Eccentric anomaly
342.49587°
Mean motion
3.59122 °/min
Orbital period
100.24 mins
BSTAR
0.00019714
Loading maneuver chart data...
Computing Atmospheric mass density...
Loading historical data...
Loading historical data...
Loading historical data...
Loading historical data...
Loading historical data...
Loading historical data...
Loading historical data...

Documentation

Showing up to 5 results
|